Time,TemperatureF,DewpointF,PressureIn,WindDirection,WindDirectionDegrees,WindSpeedMPH,WindSpeedGustMPH,Humidity,HourlyPrecipIn,Conditions,Clouds,dailyrainin,SolarRadiationWatts/m^2,SoftwareType,DateUTC
2013-08-01 00:06:00,63.6,63.0,29.86,NW,322,1.0,2.0,96,0.00,,,0.00,0,weatherlink.com 1.10,2013-08-01 04:06:00,
2013-08-01 00:21:00,63.6,63.0,29.87,NW,322,0.0,3.0,96,0.00,,,0.00,0,weatherlink.com 1.10,2013-08-01 04:21:00,
2013-08-01 00:36:00,63.5,62.0,29.86,NW,322,0.0,3.0,96,0.00,,,0.00,0,weatherlink.com 1.10,2013-08-01 04:36:00,
2013-08-01 00:51:00,63.5,63.0,29.86,NW,322,0.0,3.0,97,0.00,,,0.00,0,weatherlink.com 1.10,2013-08-01 04:51:00,
2013-08-01 01:06:00,63.4,63.0,29.86,NW,322,0.0,0.0,97,0.00,,,0.00,0,weatherlink.com 1.10,2013-08-01 05:06:00,
2013-08-01 01:21:00,63.1,62.0,29.86,NW,322,0.0,2.0,97,0.00,,,0.00,0,weatherlink.com 1.10,2013-08-01 05:21:00,
2013-08-01 01:36:00,62.9,62.0,29.87,NW,322,0.0,1.0,97,0.00,,,0.00,0,weatherlink.com 1.10,2013-08-01 05:36:00,
2013-08-01 01:51:00,62.9,62.0,29.86,NW,322,0.0,3.0,97,0.00,,,0.00,0,weatherlink.com 1.10,2013-08-01 05:51:00,
2013-08-01 02:06:00,62.8,62.0,29.86,NW,322,0.0,2.0,97,0.00,,,0.00,0,weatherlink.com 1.10,2013-08-01 06:06:00,
2013-08-01 02:21:00,62.6,62.0,29.86,NW,322,0.0,2.0,97,0.00,,,0.00,0,weatherlink.com 1.10,2013-08-01 06:21:00,
2013-08-01 02:36:00,62.7,62.0,29.85,NW,322,1.0,3.0,97,0.00,,,0.00,0,weatherlink.com 1.10,2013-08-01 06:36:00,
2013-08-01 02:51:00,62.7,62.0,29.85,NW,322,0.0,2.0,97,0.00,,,0.00,0,weatherlink.com 1.10,2013-08-01 06:51:00,
2013-08-01 03:06:00,62.6,62.0,29.86,NW,322,0.0,2.0,97,0.00,,,0.00,0,weatherlink.com 1.10,2013-08-01 07:06:00,
2013-08-01 03:21:00,62.6,62.0,29.85,NW,322,0.0,4.0,97,0.00,,,0.00,0,weatherlink.com 1.10,2013-08-01 07:21:00,
2013-08-01 03:36:00,63.0,63.0,29.85,NW,313,3.0,7.0,98,0.00,,,0.00,0,weatherlink.com 1.10,2013-08-01 07:36:00,
2013-08-01 03:51:00,63.1,62.0,29.85,NW,313,1.0,6.0,97,0.00,,,0.00,0,weatherlink.com 1.10,2013-08-01 07:51:00,
2013-08-01 04:06:00,63.0,62.0,29.85,NW,313,0.0,5.0,97,0.00,,,0.00,0,weatherlink.com 1.10,2013-08-01 08:06:00,
2013-08-01 05:21:00,62.9,62.0,29.86,NW,313,1.0,3.0,98,0.00,,,0.00,0,weatherlink.com 1.10,2013-08-01 09:21:00,
2013-08-01 05:36:00,63.0,63.0,29.86,NW,313,0.0,4.0,98,0.00,,,0.00,0,weatherlink.com 1.10,2013-08-01 09:36:00,
2013-08-01 05:51:00,63.1,63.0,29.86,NW,313,0.0,4.0,98,0.00,,,0.00,0,weatherlink.com 1.10,2013-08-01 09:51:00,
2013-08-01 06:21:00,63.0,63.0,29.86,NW,313,1.0,4.0,98,0.00,,,0.00,0,weatherlink.com 1.10,2013-08-01 10:21:00,
2013-08-01 06:51:00,62.6,62.0,29.87,NW,313,0.0,3.0,97,0.00,,,0.00,7,weatherlink.com 1.10,2013-08-01 10:51:00,
2013-08-01 07:07:00,62.5,62.0,29.87,NW,313,0.0,3.0,97,0.00,,,0.00,18,weatherlink.com 1.10,2013-08-01 11:07:00,
2013-08-01 07:22:00,62.5,62.0,29.88,NW,313,1.0,3.0,97,0.00,,,0.00,54,weatherlink.com 1.10,2013-08-01 11:22:00,
2013-08-01 07:37:00,62.5,62.0,29.88,NW,313,0.0,2.0,97,0.00,,,0.00,42,weatherlink.com 1.10,2013-08-01 11:37:00,
2013-08-01 07:52:00,62.4,62.0,29.89,NW,313,1.0,4.0,97,0.00,,,0.00,40,weatherlink.com 1.10,2013-08-01 11:52:00,
2013-08-01 08:07:00,62.5,62.0,29.89,NW,313,0.0,4.0,97,0.00,,,0.00,86,weatherlink.com 1.10,2013-08-01 12:07:00,
2013-08-01 08:52:00,62.8,62.0,29.89,NW,313,4.0,6.0,96,0.00,,,0.00,181,weatherlink.com 1.10,2013-08-01 12:52:00,
2013-08-01 09:07:00,63.2,62.0,29.89,NW,313,2.0,4.0,96,0.00,,,0.00,218,weatherlink.com 1.10,2013-08-01 13:07:00,
2013-08-01 09:22:00,64.0,63.0,29.89,NW,313,3.0,5.0,96,0.00,,,0.00,339,weatherlink.com 1.10,2013-08-01 13:22:00,
2013-08-01 10:07:00,67.6,65.0,29.88,NW,305,0.0,5.0,90,0.00,,,0.00,489,weatherlink.com 1.10,2013-08-01 14:07:00,
2013-08-01 10:52:00,70.5,66.0,29.88,West,260,2.0,7.0,84,0.00,,,0.00,480,weatherlink.com 1.10,2013-08-01 14:52:00,
2013-08-01 11:07:00,71.4,66.0,29.88,WSW,237,2.0,10.0,82,0.00,,,0.00,668,weatherlink.com 1.10,2013-08-01 15:07:00,
2013-08-01 11:22:00,72.1,66.0,29.87,NW,306,2.0,7.0,81,0.00,,,0.00,786,weatherlink.com 1.10,2013-08-01 15:22:00,
2013-08-01 11:37:00,72.7,66.0,29.87,West,268,1.0,7.0,80,0.00,,,0.00,299,weatherlink.com 1.10,2013-08-01 15:37:00,
2013-08-01 12:07:00,73.7,66.0,29.88,West,270,4.0,11.0,77,0.00,,,0.00,916,weatherlink.com 1.10,2013-08-01 16:07:00,
2013-08-01 12:22:00,74.8,66.0,29.87,WNW,303,5.0,8.0,73,0.00,,,0.00,970,weatherlink.com 1.10,2013-08-01 16:22:00,
2013-08-01 12:37:00,75.2,66.0,29.87,West,261,5.0,8.0,73,0.00,,,0.00,947,weatherlink.com 1.10,2013-08-01 16:37:00,
2013-08-01 13:53:00,77.8,57.0,29.86,WNW,283,6.0,11.0,49,0.00,,,0.00,942,weatherlink.com 1.10,2013-08-01 17:53:00,
2013-08-01 14:08:00,78.8,58.0,29.87,NW,324,7.0,12.0,49,0.00,,,0.00,874,weatherlink.com 1.10,2013-08-01 18:08:00,
2013-08-01 14:23:00,77.7,56.0,29.87,NW,304,8.0,15.0,47,0.00,,,0.00,907,weatherlink.com 1.10,2013-08-01 18:23:00,
2013-08-01 14:38:00,78.0,56.0,29.86,WNW,286,5.0,15.0,46,0.00,,,0.00,912,weatherlink.com 1.10,2013-08-01 18:38:00,
2013-08-01 14:53:00,78.3,56.0,29.86,WNW,282,7.0,16.0,46,0.00,,,0.00,919,weatherlink.com 1.10,2013-08-01 18:53:00,
2013-08-01 15:08:00,78.8,56.0,29.87,North,4,1.0,12.0,45,0.00,,,0.00,998,weatherlink.com 1.10,2013-08-01 19:08:00,
2013-08-01 15:23:00,79.0,56.0,29.86,WNW,285,9.0,13.0,45,0.00,,,0.00,946,weatherlink.com 1.10,2013-08-01 19:23:00,
2013-08-01 16:08:00,78.3,55.0,29.88,NNE,12,8.0,13.0,45,0.00,,,0.00,809,weatherlink.com 1.10,2013-08-01 20:08:00,
2013-08-01 16:23:00,78.7,56.0,29.84,NW,320,6.0,11.0,45,0.00,,,0.00,761,weatherlink.com 1.10,2013-08-01 20:23:00,
2013-08-01 16:38:00,79.0,56.0,29.85,WNW,303,4.0,10.0,45,0.00,,,0.00,735,weatherlink.com 1.10,2013-08-01 20:38:00,
2013-08-01 17:08:00,79.2,56.0,29.86,WNW,299,10.0,12.0,45,0.00,,,0.00,663,weatherlink.com 1.10,2013-08-01 21:08:00,
2013-08-01 17:23:00,79.2,55.0,29.86,WNW,295,9.0,12.0,44,0.00,,,0.00,608,weatherlink.com 1.10,2013-08-01 21:23:00,
2013-08-01 17:53:00,78.4,55.0,29.85,North,354,2.0,10.0,45,0.00,,,0.00,504,weatherlink.com 1.10,2013-08-01 21:53:00,
2013-08-01 18:08:00,79.1,55.0,29.85,NNW,340,0.0,9.0,44,0.00,,,0.00,468,weatherlink.com 1.10,2013-08-01 22:08:00,
2013-08-01 18:23:00,78.4,55.0,29.86,WNW,303,4.0,10.0,44,0.00,,,0.00,431,weatherlink.com 1.10,2013-08-01 22:23:00,
2013-08-01 19:08:00,77.4,55.0,29.84,North,354,5.0,11.0,46,0.00,,,0.00,279,weatherlink.com 1.10,2013-08-01 23:08:00,
2013-08-01 19:23:00,77.5,55.0,29.84,NNW,341,2.0,9.0,46,0.00,,,0.00,230,weatherlink.com 1.10,2013-08-01 23:23:00,
2013-08-01 19:38:00,77.0,55.0,29.85,NNW,334,4.0,7.0,47,0.00,,,0.00,174,weatherlink.com 1.10,2013-08-01 23:38:00,
2013-08-01 19:53:00,76.2,55.0,29.85,NNW,339,3.0,8.0,48,0.00,,,0.00,84,weatherlink.com 1.10,2013-08-01 23:53:00,
2013-08-01 20:08:00,75.1,55.0,29.84,NNE,32,0.0,7.0,50,0.00,,,0.00,109,weatherlink.com 1.10,2013-08-02 00:08:00,
2013-08-01 20:23:00,74.9,55.0,29.85,North,8,3.0,5.0,51,0.00,,,0.00,49,weatherlink.com 1.10,2013-08-02 00:23:00,
2013-08-01 21:08:00,72.6,56.0,29.86,North,8,0.0,3.0,56,0.00,,,0.00,0,weatherlink.com 1.10,2013-08-02 01:08:00,
2013-08-01 21:23:00,71.7,57.0,29.86,North,8,0.0,2.0,60,0.00,,,0.00,0,weatherlink.com 1.10,2013-08-02 01:23:00,
2013-08-01 21:38:00,70.6,57.0,29.86,North,8,0.0,3.0,63,0.00,,,0.00,0,weatherlink.com 1.10,2013-08-02 01:38:00,
2013-08-01 21:53:00,69.6,59.0,29.87,North,8,0.0,1.0,68,0.00,,,0.00,0,weatherlink.com 1.10,2013-08-02 01:53:00,
2013-08-01 22:08:00,68.2,58.0,29.86,North,8,0.0,0.0,71,0.00,,,0.00,0,weatherlink.com 1.10,2013-08-02 02:08:00,
2013-08-01 22:23:00,67.0,58.0,29.86,North,8,0.0,0.0,73,0.00,,,0.00,0,weatherlink.com 1.10,2013-08-02 02:23:00,
2013-08-01 22:38:00,66.1,58.0,29.87,North,8,0.0,0.0,75,0.00,,,0.00,0,weatherlink.com 1.10,2013-08-02 02:38:00,
2013-08-01 22:53:00,64.8,57.0,29.87,North,8,1.0,1.0,77,0.00,,,0.00,0,weatherlink.com 1.10,2013-08-02 02:53:00,
2013-08-01 23:23:00,63.4,58.0,29.87,North,8,0.0,0.0,82,0.00,,,0.00,0,weatherlink.com 1.10,2013-08-02 03:23:00,
2013-08-01 23:53:00,61.7,57.0,29.88,North,8,0.0,2.0,85,0.00,,,0.00,0,weatherlink.com 1.10,2013-08-02 03:53:00,